Location: ???????
(44.2000°N, 134.9387°E)
Time: 23:04:28
(UTC+00:00)

Daily predictions for brighter satellites

Satellite Brightness Start Highest point End
(mag) Time Altitude Azimuth Time Altitude Azimuth Time Altitude Azimuth
CZ-4 R/B 4.3 12:01:59 10° W 12:02:38 10° W 12:03:17 10° W
Cosmos 1455 1.3 12:01:40 10° N 12:04:23 64° E 12:06:01 21° SSE
Okean O Rocket 2.7 12:01:30 10° S 12:05:33 41° W 12:09:38 10° NNW
ATLAS CENTAUR R/B 1.9 12:04:32 10° NNW 12:08:12 42° NE 12:10:45 17° ESE
RESURS DK-1 3.0 12:07:18 14° SSE 12:10:09 33° ESE 12:13:46 10° NE
In-Cosmos 22 4.3 12:05:51 10° S 12:11:36 85° W 12:17:17 10° N
Cosmos 2237 Rocket 2.3 12:09:20 10° NNW 12:15:02 75° WSW 12:19:38 16° SSE
PSLV R/B 3.8 12:15:19 22° SE 12:17:04 46° ENE 12:20:16 10° N
USA 305 2.4 12:15:01 10° SW 12:18:57 84° SSE 12:22:27 10° NE
Cosmos 921 Rocket 2.9 12:16:06 10° SSW 12:20:20 88° ESE 12:24:41 10° NNE
Cosmos 2016 Rocket 4.5 12:19:12 10° N 12:25:19 48° ENE 12:29:33 20° SE
Meteor 2-10 Rocket 4.0 12:20:01 10° NNW 12:25:41 65° W 12:30:38 13° S
Meteor 1-22 Rocket 4.1 12:24:41 10° N 12:30:03 75° ENE 12:33:51 21° SSE
SL-8 R/B 4.3 12:26:42 10° WNW 12:31:26 57° N 12:36:07 10° E
Cosmos 1437 Rocket 2.7 12:30:19 27° SSE 12:31:58 51° E 12:35:27 10° NNE
SL-14 R/B 3.9 12:32:33 10° SSW 12:36:23 55° W 12:40:16 10° N
USA 276 2.1 12:37:04 10° WNW 12:38:43 36° WSW 12:38:43 36° WSW
Cosmos 1818 3.9 12:36:04 10° SW 12:41:29 70° NW 12:46:57 10° NNE
Cosmos 2297 Rocket 3.7 12:39:49 10° WSW 12:45:03 38° NW 12:50:19 10° NNE
Cosmos 2173 Rocket 4.2 12:43:50 10° NNW 12:49:59 70° W 12:54:35 18° S
Ariane Rocket 3.3 12:49:31 21° S 12:52:54 63° WSW 12:57:57 10° NNW
SPOT 3 Rocket 4.0 12:51:45 19° S 12:55:17 55° W 13:00:22 10° NNW
Cosmos 1864 Rocket 4.5 12:50:39 10° N 12:56:52 89° W 13:00:52 24° S
USA 290 2.8 12:58:10 38° E 12:58:10 38° E 13:01:01 10° NE
SL-4 R/B 2.6 12:59:04 34° SE 12:59:04 34° SE 13:02:25 10° ENE
Cosmos 1269 Rocket 4.1 12:59:05 26° S 13:01:54 58° ESE 13:07:05 10° NNE
Cosmos 1953 2.7 12:58:53 10° N 13:02:30 44° ENE 13:03:24 36° ESE
Cosmos 2233 Rocket 4.1 12:56:59 10° N 13:03:17 65° E 13:06:44 28° SSE
Lacrosse 4 Rocket 1.6 13:00:26 10° NW 13:04:36 61° WSW 13:06:10 35° S
Meteor 1-23 Rocket 4.2 13:04:30 20° SSW 13:08:29 82° W 13:14:07 10° N
SL-16 R/B 2.1 13:03:54 10° NNW 13:09:36 88° ENE 13:12:23 32° SSE
Cosmos 2228 Rocket 4.5 13:10:21 22° ESE 13:11:04 23° E 13:14:35 10° NE
COSMOS 2455 3.7 13:05:56 10° NW 13:11:27 39° WSW 13:14:48 21° SSW
Cosmos 1703 4.4 13:13:11 24° E 13:13:11 24° E 13:15:55 10° NE
Cosmos 2227 Rocket 3.2 13:08:03 10° SW 13:13:27 46° WNW 13:18:55 10° NNE
Meteor 1-21 4.2 13:10:45 24° S 13:14:17 88° E 13:20:04 10° N
Cosmos 1725 Rocket 4.1 13:08:25 10° NNW 13:14:42 72° W 13:18:34 25° S
Cosmos 1992 Rocket 4.4 13:10:26 10° NNW 13:15:28 53° WSW 13:17:59 28° SSW
GP-B 3.0 13:11:53 10° N 13:16:16 88° E 13:17:57 38° S
Cosmos 2263 Rocket 2.2 13:13:29 13° SSW 13:18:33 81° WNW 13:24:16 10° NNE
Meteor 1-16 Rocket 4.3 13:13:56 10° N 13:19:46 79° E 13:22:33 33° SSE
Cosmos 1707 Rocket 4.3 13:23:04 32° ESE 13:23:41 34° E 13:27:34 10° NNE
Terra 4.4 13:22:56 10° WSW 13:24:19 11° W 13:25:43 10° WNW
CZ-4C R/B 3.1 13:23:57 10° NNE 13:26:58 51° E 13:26:58 51° E
Cosmos 1933 Rocket 4.2 13:23:35 10° NNW 13:27:49 48° W 13:29:34 30° SSW
Cosmos 2084 Rocket 3.6 13:24:49 10° NW 13:28:52 55° WSW 13:29:39 46° SSW
Cosmos 1892 3.8 13:30:29 23° ENE 13:30:29 23° ENE 13:32:17 10° NNE
IRIDIUM 106 4.4 13:29:33 38° SSE 13:31:24 61° E 13:36:33 10° N
Cosmos 1943 3.8 13:26:00 10° NNW 13:31:33 49° ENE 13:34:16 28° ESE
ALOS 2 4.2 13:30:06 20° E 13:31:35 24° ENE 13:35:07 10° NNE
Landsat 5 4.4 13:30:23 10° NNE 13:34:11 31° E 13:34:22 31° ESE
Meteor 2-16 Rocket 4.4 13:32:35 28° SSW 13:35:59 83° W 13:42:07 10° N
Cosmos 2219 3.5 13:33:22 14° SW 13:38:16 66° WNW 13:44:01 10° NNE
Cosmos 1733 Rocket 3.4 13:35:03 10° N 13:39:21 53° ENE 13:40:16 44° ESE
NOSS 3-1 (C) 4.5 13:33:38 10° NNW 13:40:38 57° NE 13:47:01 19° ESE
Cosmos 1869 Rocket 4.0 13:37:51 10° NNW 13:42:07 52° W 13:43:27 37° SW
SeaSat 1 4.5 13:39:47 10° E 13:43:19 21° NE 13:46:53 10° N
ATLAS CENTAUR R/B 3.0 13:41:18 10° WNW 13:43:55 18° WSW 13:44:09 18° WSW
ASTEX 1 3.4 13:39:17 10° N 13:44:14 67° E 13:45:37 45° SSE
CZ-2C R/B 3.7 13:40:16 10° NNE 13:44:47 65° ESE 13:45:49 49° SSE
Cosmos 2082 3.9 13:44:08 21° SW 13:48:00 73° WNW 13:53:45 10° NNE
Cosmos 1763 Rocket 4.0 13:46:05 10° N 13:51:04 48° ENE 13:52:52 33° ESE
Cosmos 2292 Rocket 3.0 13:51:43 62° N 13:51:43 62° N 13:54:12 10° N
Cosmos 2061 Rocket 4.4 13:45:42 10° NNW 13:51:51 58° W 13:54:53 30° SSW
Okean 3 3.5 13:51:36 48° SW 13:52:34 67° W 13:56:39 10° N
Okean 2 3.5 13:53:46 48° SW 13:54:34 61° W 13:58:27 10° N
MetOp-A 3.7 14:01:42 51° S 14:02:55 87° WSW 14:07:33 10° NNW
Cosmos 2227 4.1 14:04:11 44° S 14:05:52 67° ESE 14:11:27 10° NNE
USA 234 4.1 14:01:36 10° ENE 14:07:07 28° SE 14:07:15 28° SE
Cosmos 1862 Rocket 3.5 14:06:29 57° SSW 14:07:21 83° W 14:11:48 10° N
Cosmos 1140 Rocket 4.1 14:07:29 23° SW 14:10:25 50° WNW 14:15:25 10° NNE
Cosmos 1513 Rocket 4.5 14:05:31 10° N 14:11:57 90° ENE 14:14:26 41° S
USA 307 4.2 14:15:00 23° ENE 14:15:00 23° ENE 14:16:47 10° ENE
SL-8 R/B 3.6 14:09:09 10° WNW 14:13:52 61° SSW 14:14:12 59° S
ARIANE 5 R/B 2.7 14:13:51 56° SSW 14:14:35 68° WSW 14:19:03 10° NNW
USA 59 Rocket 1.9 14:13:25 10° N 14:16:16 22° NE 14:19:13 12° E
Spot 4 3.8 14:15:39 55° SSE 14:16:44 88° ENE 14:21:36 10° NNW
Okean 1-7 2.7 14:17:57 74° S 14:18:18 87° ESE 14:22:27 10° N
SWAS 4.2 14:22:23 10° NNW 14:26:27 71° WSW 14:26:30 71° WSW
Cosmos 1271 Rocket 3.0 14:27:15 53° ENE 14:27:15 53° ENE 14:30:24 10° NNE
Cosmos 1844 Rocket 2.6 14:26:47 47° S 14:28:27 78° ESE 14:34:09 10° NNE
NOSS 3-1 (A) 4.5 14:21:42 10° NNW 14:28:45 57° NE 14:35:51 15° ESE
ATLAS 2AS CENTAUR R/B 3.3 14:28:12 34° SE 14:29:45 38° ESE 14:36:06 10° NE
PSLV R/B 3.6 14:26:27 10° NNE 14:30:44 63° E 14:31:04 60° SE
Cosmos 1844 3.6 14:30:43 50° S 14:32:09 73° ESE 14:37:42 10° NNE
Cosmos 407 Rocket 3.8 14:30:32 34° SW 14:32:34 58° WNW 14:37:37 10° NNE
SJ 16-02 2.6 14:36:07 28° E 14:36:07 28° E 14:39:38 10° NE
SL-4 R/B 2.7 14:32:50 11° W 14:36:37 53° NNW 14:40:32 10° NE
Cosmos 2251 Rocket 3.5 14:37:14 47° SSW 14:38:49 81° WNW 14:44:12 10° NNE
Meteor 1-24 Rocket 4.0 14:42:57 43° SSE 14:44:41 60° E 14:50:31 10° NNE
Cosmos 1464 Rocket 4.0 14:39:18 10° NNW 14:45:34 70° W 14:47:39 43° SSW
Cosmos 1954 Rocket 3.9 14:47:09 56° S 14:48:12 75° ESE 14:53:25 10° NNE
PSLV R/B 4.0 14:44:32 10° NNE 14:48:18 59° E 14:48:18 59° E
Cosmos 2228 Rocket 4.4 14:47:43 28° WSW 14:48:58 33° WNW 14:53:00 10° N
Meteor 2-17 Rocket 4.5 14:50:00 45° SSE 14:51:50 67° E 14:57:50 10° NNE
Cosmos 2034 Rocket 3.9 14:46:00 10° N 14:52:15 89° E 14:54:22 45° S
BREEZE-M DEB (TANK) 3.6 14:42:46 10° SW 14:52:39 48° SSE 14:55:55 10° ENE
SL-16 R/B 4.3 14:50:15 10° WNW 14:52:49 13° W 14:54:14 12° WSW
Aureole 3 Rocket 3.8 14:49:56 10° NNW 14:52:29 32° W 14:52:29 32° W
Cosmos 1190 Rocket 4.0 14:51:44 49° SW 14:53:11 79° WNW 14:58:30 10° NNE
Cosmos 1703 Rocket 3.3 14:54:19 73° SW 14:54:41 82° W 14:59:01 10° N
Cosmos 540 Rocket 3.6 14:50:14 10° NNW 14:55:15 58° WSW 14:56:03 51° SW
Meteor 2-5 Rocket 3.9 14:55:35 47° SSE 14:57:18 71° E 15:03:13 10° NNE
Cosmos 1782 Rocket 3.8 14:53:48 10° N 14:58:10 58° E 14:58:47 52° ESE
MINOTAUR IV R/B 4.5 15:01:11 66° SE 15:01:22 67° ESE 15:05:45 10° NNE
Cosmos 468 Rocket 3.9 14:59:19 10° NNW 15:04:26 69° WSW 15:05:19 57° SSW
Cosmos 841 Rocket 3.8 15:00:45 10° NNW 15:05:58 61° ENE 15:07:43 39° SE
NOSS 2-1 (D) 4.0 15:02:47 10° NNW 15:06:20 53° NE 15:07:44 36° ESE
ALOS 2 3.5 15:07:30 35° WSW 15:07:44 35° W 15:11:46 10° NNW
Cosmos 1833 Rocket 4.2 15:06:28 10° N 15:11:27 32° NE 15:16:04 12° ESE
Cosmos 1943 4.4 15:10:34 10° NW 15:15:14 27° WSW 15:16:02 26° WSW
Cosmos 2344 4.3 15:08:42 10° NW 15:16:59 54° WSW 15:22:12 32° S
SeaSat 1 2.4 15:19:25 57° S 15:20:15 70° WSW 15:25:09 10° NNW
Cosmos 1634 Rocket 3.9 15:18:29 10° N 15:24:49 86° E 15:27:04 43° S
Cosmos 2242 Rocket 3.9 15:24:58 50° SE 15:25:34 54° E 15:29:56 10° NNE
CZ-2C R/B 3.8 15:26:06 10° NNE 15:31:15 42° E 15:32:41 35° SE
Cosmos 1603 4.4 15:27:31 10° NW 15:32:35 36° WSW 15:33:20 34° WSW
NOSS 2-1 (C) 3.3 15:30:41 10° NW 15:34:23 89° WSW 15:35:02 64° SE
H-2A R/B 3.0 15:34:30 38° E 15:35:01 41° ENE 15:38:28 10° N
NOSS 2-1 (E) 3.4 15:33:48 10° NW 15:37:32 87° NE 15:38:27 56° SE
Cosmos 968 Rocket 3.5 15:38:36 50° SSE 15:39:48 67° ESE 15:44:59 10° NNE
Cosmos 1606 3.0 15:39:18 10° N 15:41:35 47° NNW 15:41:35 47° NNW
USA 307 3.9 15:41:31 25° WNW 15:43:12 39° NNW 15:46:57 10° NE
Cosmos 2278 Rocket 3.8 15:42:00 19° SE 15:43:50 23° E 15:48:07 10° NE
CZ-2C R/B 2.8 15:47:16 35° SE 15:49:25 66° ENE 15:54:41 10° N
USA 234 3.2 15:44:01 10° NE 15:50:35 85° NW 15:54:34 26° SW
Cosmos 1943 Rocket 3.7 15:50:11 19° SE 15:52:02 23° ESE 15:56:14 10° NE
SL-12 R/B(2) 4.3 15:48:38 29° SW 15:53:20 83° NW 16:03:04 10° NE
Cosmos 1674 Rocket 4.2 15:56:29 39° SE 15:57:24 45° E 16:01:33 10° NNE
CZ-2D R/B 4.5 15:55:41 10° ENE 15:57:55 12° E 16:00:07 10° ESE
Nadezhda 4 Rocket 4.4 15:55:23 31° SSE 15:58:12 54° E 16:04:17 10° NNE
Landsat 4 3.8 16:00:59 50° N 16:00:59 50° N 16:03:15 10° NNW
STPSAT 2 (USA 217) 4.5 16:01:24 59° SSW 16:02:14 87° WNW 16:06:42 10° NNE
USA 59 Rocket 0.5 16:01:34 10° NW 16:05:03 44° WSW 16:05:03 44° WSW
ATLAS 3B R/B 3.3 15:59:06 10° NNW 16:07:00 68° NE 16:14:32 10° SE
Cosmos 1741 Rocket 4.0 16:05:20 45° SSW 16:07:01 81° WNW 16:12:22 10° NNE
Cosmos 371 Rocket 3.3 16:07:11 47° SW 16:08:29 72° WNW 16:13:20 10° NNE
SJ 16-02 2.7 16:12:41 23° W 16:14:02 28° WNW 16:17:48 10° N
SL-4 R/B 4.0 16:11:42 10° WNW 16:15:12 27° N 16:18:34 10° NE
Cosmos 2151 Rocket 3.6 16:12:33 10° N 16:17:00 77° E 16:18:25 43° SSE
In-Cosmos 22 Rocket 4.2 16:15:52 38° S 16:18:08 78° E 16:23:53 10° NNE
Okean 2 Rocket 3.3 16:15:34 10° N 16:20:03 67° E 16:21:44 36° SSE
ATLAS 2AS CENTAUR R/B 3.3 16:15:35 20° WSW 16:20:30 53° NW 16:27:17 10° NNE
Nimbus 7 Rocket 4.4 16:19:57 10° NNE 16:25:54 84° WNW 16:28:38 35° SSW
Cosmos 2279 Rocket 4.5 16:24:13 10° NNW 16:30:02 44° W 16:32:24 31° SW
Okean 1 Rocket 3.3 16:26:42 10° N 16:31:09 67° E 16:33:10 31° SSE
ADEOS II 4.3 16:27:57 10° NE 16:31:22 17° E 16:34:46 10° SE
Cosmos 1025 Rocket 3.0 16:33:21 41° SSE 16:34:42 71° E 16:38:56 10° NNE
Cosmos 1378 Rocket 4.0 16:35:49 38° WSW 16:36:58 48° WNW 16:41:15 10° N
Cosmos 158 Rocket 4.3 16:32:44 10° NNW 16:37:47 62° ENE 16:41:52 15° SE
FENGYUN 3A 4.3 16:40:15 10° NNE 16:45:26 47° E 16:48:42 22° SSE
Cosmos 1975 Rocket 4.4 16:47:08 17° SE 16:49:59 33° E 16:53:58 10° NNE
Cosmos 1428 Rocket 4.4 16:49:59 29° SSW 16:53:16 75° W 16:59:23 10° N
MOZ.5/SAFIR/RUBIN 5/SL-8 3.8 16:50:54 23° SSE 16:53:46 79° ENE 16:58:21 10° N
Cosmos 1833 Rocket 3.1 16:50:12 10° NW 16:55:28 43° WSW 16:57:41 29° SSW
IDEFIX/ARIANE 42P 2.5 16:50:41 10° NNE 16:55:57 85° WNW 16:58:40 29° SSW
MSX 3.8 16:50:11 10° NNE 16:55:58 88° ESE 16:59:15 27° SSW
SL-24 R/B - RUBIN 2 3.6 16:51:52 10° NW 16:56:38 60° WSW 16:59:00 26° SSE
Cosmos 1340 Rocket 3.3 16:53:40 10° NNW 16:57:18 40° W 16:57:58 36° WSW
Cosmos 1814 Rocket 4.2 16:53:05 10° NNW 16:58:16 52° WSW 17:00:49 28° SSW
Meteor 1-11 4.3 17:00:09 28° SSW 17:03:21 77° W 17:09:11 10° N
NPP 3.6 17:02:00 10° NNE 17:07:25 81° WNW 17:10:36 26° SSW
H-2A R/B 4.3 17:09:52 13° W 17:09:52 13° W 17:11:27 10° WNW
CZ-2C R/B 4.4 17:06:15 10° N 17:10:47 28° WNW 17:13:40 17° WSW
H-2A R/B 1.8 17:08:42 10° NNE 17:12:42 85° WNW 17:14:38 30° SSW
Timation 2 Rocket 4.5 17:09:06 21° WSW 17:12:51 46° NW 17:18:36 10° NNE
USA 229 DEB 4.0 17:06:24 10° NW 17:13:55 69° WSW 17:22:04 10° SSE
USA 229 4.0 17:06:30 10° NW 17:14:01 70° WSW 17:22:10 10° SSE
COSMOS 2406 4.4 17:08:59 10° NNW 17:14:28 43° ENE 17:19:55 10° SE
ATLAS 5 CENTAUR R/B 2.5 17:15:08 18° SSE 17:16:13 21° ESE 17:18:44 10° ENE
Cosmos 2221 Rocket 4.5 17:14:56 25° WSW 17:16:43 35° WNW 17:20:47 10° N
Cosmos 1455 Rocket 2.9 17:13:19 10° N 17:17:42 85° W 17:20:39 20° S
SL-16 R/B 4.2 17:13:45 10° SE 17:19:12 34° ENE 17:24:42 10° N
Cosmos 2082 Rocket 2.3 17:19:24 10° NNW 17:25:09 81° ENE 17:30:52 10° SSE
Resurs 1-4 Rocket 2.2 17:20:05 10° NNE 17:25:22 78° ESE 17:29:19 18° S
Cosmos 2278 Rocket 2.5 17:23:49 22° SW 17:27:27 56° WNW 17:33:02 10° NNE
Cosmos 1486 Rocket 4.4 17:23:49 17° S 17:27:40 57° ESE 17:32:47 10° NNE
Cosmos 332 Rocket 4.5 17:25:13 22° WSW 17:27:59 42° WNW 17:32:34 10° N
CZ-2C R/B 4.2 17:28:43 15° WSW 17:30:10 16° W 17:33:25 10° NW
USA 234 4.5 17:27:15 10° NE 17:33:08 38° NNW 17:39:03 10° W
Cosmos 1943 Rocket 2.5 17:31:40 20° SW 17:35:20 54° WNW 17:40:45 10° NNE
SAR-Lupe-3 4.3 17:33:36 14° SSE 17:36:02 69° ENE 17:38:57 10° N
CZ-2D R/B 2.1 17:33:10 10° NNE 17:38:37 88° WNW 17:42:55 16° SSW
Cosmos 1515 2.6 17:37:11 10° N 17:39:54 81° W 17:41:27 23° S
Cosmos 1553 Rocket 3.9 17:34:58 10° N 17:41:04 89° W 17:47:11 10° S
Cosmos 2228 3.2 17:37:59 10° N 17:42:06 69° E 17:46:12 10° SSE
Cosmos 1812 3.2 17:43:27 10° NNW 17:46:15 29° W 17:47:25 22° SW
SL-4 R/B 3.5 17:50:16 10° NW 17:53:54 35° NNE 17:57:22 10° E
Cosmos 2098 Rocket 2.5 17:50:36 10° NNW 17:54:18 56° W 17:56:50 15° S
ALOS 2.2 17:52:02 10° NNE 17:56:37 86° WNW 18:00:49 12° SSW
ATLAS 3B R/B 3.7 17:50:38 10° NW 17:57:16 31° WSW 18:03:36 10° SSW
USA 281 3.8 17:51:37 10° NNE 17:58:01 53° ESE 18:04:24 10° S
Cosmos 1544 Rocket 3.5 17:57:16 10° N 18:01:36 87° E 18:05:53 10° S
Cosmos 1503 Rocket 4.1 17:59:20 11° SSW 18:04:24 78° ESE 18:09:38 10° NNE
Cosmos 2369 Rocket 3.3 17:59:15 10° S 18:04:32 40° ESE 18:09:50 10° NE
NOAA 11 4.2 17:59:31 10° NNE 18:05:03 80° WNW 18:10:31 10° SSW
Cosmos 2266 Rocket 4.1 17:59:37 10° S 18:05:44 78° E 18:12:00 10° N
AQUA 3.9 18:04:25 10° NNE 18:09:07 78° ESE 18:13:48 10° S
ADEOS II 2.2 18:06:11 10° N 18:11:22 64° WNW 18:16:31 10° SSW
USA 305 0.9 18:14:13 10° NW 18:15:26 33° NNE 18:15:51 17° E
Cosmos 2208 Rocket 4.3 18:12:39 10° NNW 18:17:35 46° WSW 18:22:29 10° S
NOSS 3-3 (A) 3.9 18:15:26 10° SSW 18:20:35 71° ESE 18:26:38 10° NE
Cosmos 773 Rocket 4.2 18:18:28 10° NNW 18:23:31 52° WSW 18:28:34 10° S
Cosmos 990 Rocket 4.4 18:23:38 10° S 18:28:39 61° ESE 18:33:43 10° NNE
Cosmos 2084 3.3 18:32:17 10° NW 18:36:15 85° NE 18:40:08 10° SE
DMSP B5D2-2 4.3 18:32:13 10° S 18:37:20 53° W 18:42:30 10° NNW
Atlas Centaur 2 4.1 18:35:27 10° SW 18:41:53 26° SSE 18:48:08 10° ESE
BREEZE-M DEB 4.5 18:35:36 10° WSW 18:49:20 63° NNW 18:53:06 10° ENE
